Regional Weather Roundup
Issued by NWS Green Bay, WI

Home | Current Version | Previous Version | Graphics & Text | Print | Product List | Glossary Off
Versions: 1 2 3 4 5 6 7 8 9 10 11 12 13 14 15 16 17 18 19 20 21 22 23 24 25 26 27 28 29 30 31 32 33 34 35 36 37 38 39 40 41 42 43 44 45 46 47 48 49 50

000
ASUS43 KGRB 172000
RWRGRB

NORTH-CENTRAL AND NORTHEAST WISCONSIN REGIONAL WEATHER ROUNDUP
NATIONAL WEATHER SERVICE GREEN BAY WI
200 PM CST FRI NOV 17 2017

WIZ005-009-010>012-018-019-172100-
NORTH CENTRAL WISCONSIN

CITY           SKY/WX    TMP DP  RH WIND       PRES   REMARKS
IRONWOOD       LGT RAIN N/A N/A N/A S8        29.65F
MANITOWISH WTR NOT AVBL
ARBOR VITAE    NOT AVBL
EAGLE RIVER    MIX PCPN  32  32 100 SW6       29.67R
LAND O LAKES   NOT AVBL
RHINELANDER    CLOUDY    33  32  96 S10       29.68R
PHILLIPS       DRIZZLE   32  32 100 S6        29.65F
ANTIGO         NOT AVBL
TOMAHAWK       NOT AVBL
MERRILL        CLOUDY    34  33  95 SW3       29.69S
$$

WIZ013-073-172100-
NORTHEAST WISCONSIN

CITY           SKY/WX    TMP DP  RH WIND       PRES   REMARKS
IRON MOUNTAIN  CLOUDY    37  31  78 S12G20    29.68F HAZE
MARINETTE      LGT RAIN  42  36  79 S18G28    29.75F
$$

WIZ017-030-035>037-045-172100-
CENTRAL WISCONSIN

CITY           SKY/WX    TMP DP  RH WIND       PRES   REMARKS
MEDFORD        NOT AVBL
WAUSAU         CLOUDY    34  31  88 S16       29.66F
MOSINEE        LGT RAIN  34  32  93 S13       29.69F
MARSHFIELD     CLOUDY    34  31  88 S14       29.65F FOG
WISC RAPIDS    CLOUDY    36  31  82 S10       29.68F
STEVENS POINT  NOT AVBL
WAUPACA        NOT AVBL
SHAWANO        DRIZZLE   40  32  74 S5        29.73F
CLINTONVILLE   NOT AVBL
WAUTOMA        CLOUDY    37  30  75 S14       29.72F
$$

WIZ038-039-048-051-172100-
FOX VALLEY

CITY           SKY/WX    TMP DP  RH WIND       PRES   REMARKS
NWS GREEN BAY  CLOUDY    40  37  89 S15       29.75F
APPLETON       CLOUDY    37  28  70 S13       29.73F
OSHKOSH        CLOUDY    39  32  76 S14G24    29.74F
FOND DU LAC    CLOUDY    40  30  67 S17G29    29.74F
$$

WIZ022-050-052-172100-
EAST CENTRAL WISCONSIN

CITY           SKY/WX    TMP DP  RH WIND       PRES   REMARKS
EPHRAIM        NOT AVBL
WASHINGTON ISL NOT AVBL
STURGEON BAY   CLOUDY    41  36  82 S18G35    29.77F
MANITOWOC      CLOUDY    40  37  89 S23G32    29.79F
SHEBOYGAN      LGT RAIN  40  37  89 S24G32    29.79F
$$

LMZ563-521-522-541>543-172100-
LAKESHORE

STATION/POSITION TIME  TEMP    WIND        PRES    VSBY  WAVE
                       AIR SEA DIR/SP/G                  HT/PER
                 (UTC) (F)     (DEG/KT/KT) (MB)    (MI)  (FT/S)
SHEBOYGAN LKSHOR 1900   41     170/ 30/ 33 1010.3F
NORTHPORT PIER   1940   42     160/ 16/ 23 1008.1F
N MID LAKE BUOY  1850   41 49  170/ 25/ 31 1011.3F         7/ 6
SISTER BAY LKSHO 1919   44     180/ 23/ 36   N/A
$$




USA.gov is the U.S. government's official web portal to all federal, state and local government web resources and services.